[Date Prev][Date Next][Thread Prev][Thread Next] - [Date Index][Thread Index][Author Index]
PCsat & Starshine 2line Keps Sept. 30
- Subject: [sarex] PCsat & Starshine 2line Keps Sept. 30
- From: "Scott Avery WA6LIE" <wa6lie@xxxxxxx>
- Date: Mon, 1 Oct 2001 15:54:33 -0700
Here are those keps if anyone is interested.
I know this is a SAREX board, but of interest to all?
73, Scott
STARSHINE 3
1 26929U 01043A 01273.74787911 .00000117 00000-0 99407-5 0 32
2 26929 67.0547 116.9225 0004869 219.7596 140.3140 15.31508213 81
PCSAT
1 26931U 01043C 01274.55853324 -.00001011 00000-0 -36835-3 0 59
2 26931 67.0582 115.0903 0007211 247.3766 112.6561 14.28747992 203
----
Via the sarex mailing list at AMSAT.ORG courtesy of AMSAT-NA.
To unsubscribe, send "unsubscribe sarex" to Majordomo@amsat.org
AMSAT Home